Columbia Airport, CA

5:55 PM PDT on October 22, 2019 (GMT -0700)
Columbia Airport

Weather History for KO22 - July, 2019

Change the Weather History Date:

Sunday, July 14, 2019

  Actual Average (KMOD) Record (KMOD)
Temperature  
Mean Temperature 78 °F -  
Max Temperature 96 °F 95 °F 111 °F (1972)
Min Temperature 60 °F 62 °F 50 °F (1966)
Cooling Degree Days 13    
Growing Degree Days 28 (Base 50)    
Moisture  
Dew Point 45 °F    
Average Humidity 38    
Maximum Humidity 72    
Minimum Humidity 10    
Precipitation  
Precipitation 0.00 in - - ()
Sea Level Pressure  
Sea Level Pressure 30.02 in    
Wind  
Wind Speed 2 mph (SW)    
Max Wind Speed 9 mph    
Max Gust Speed 14 mph    
Visibility 10 miles    
Events      
Averages and records for this station are not official NWS values.
T = Trace of Precipitation, MM = Missing Value Source: NWS Daily Summary

Daily Weather History Graph

Daily Weather History Graph

Search for Another Location

Airport or City:

Astronomy

Jul. 14, 2019 Rise Set
Actual Time 5:50 AM PDT 8:24 PM PDT
Civil Twilight 5:19 AM PDT 8:55 PM PDT
Nautical Twilight 4:41 AM PDT 9:33 PM PDT
Astronomical Twilight 3:58 AM PDT 10:15 PM PDT
Moon 6:51 PM PDT (7/14) 3:55 AM PDT (7/14)
Length of Visible Light 15h 35m
Length of Day
14h 34m
Waxing Gibbous, 96% of the Moon is Illuminated
Jul 14
Waxing Gibbous
Jul 16
Full
Jul 24
Last Quarter
Jul 31
New
Aug 7
First Quarter

Hourly Weather History & Observations

Time (PDT) Temp. Heat Index Dew Point Humidity Pressure Visibility Wind Dir Wind Speed Gust Speed Precip Events Conditions
12:15 AM 68.0 °F - 53.6 °F 60% 29.96 in 10.0 mi Calm Calm - N/A   Clear
12:35 AM 68.0 °F - 53.6 °F 60% 29.96 in 10.0 mi Calm Calm - N/A   Clear
12:55 AM 66.2 °F - 53.6 °F 64% 29.96 in 10.0 mi Calm Calm - N/A   Clear
1:15 AM 66.2 °F - 51.8 °F 60% 29.96 in 10.0 mi Calm Calm - N/A   Clear
1:35 AM 66.2 °F - 51.8 °F 60% 29.96 in 10.0 mi Calm Calm - N/A   Clear
1:55 AM 64.4 °F - 51.8 °F 64% 29.97 in 10.0 mi Calm Calm - N/A   Clear
2:15 AM 64.4 °F - 53.6 °F 68% 29.97 in 10.0 mi Calm Calm - N/A   Clear
2:35 AM 64.4 °F - 53.6 °F 68% 29.97 in 10.0 mi Calm Calm - N/A   Clear
2:55 AM 62.6 °F - 51.8 °F 68% 29.97 in 10.0 mi Calm Calm - N/A   Clear
3:15 AM 62.6 °F - 51.8 °F 68% 29.97 in 10.0 mi Calm Calm - N/A   Clear
3:35 AM 62.6 °F - 51.8 °F 68% 29.97 in 10.0 mi Calm Calm - N/A   Clear
3:55 AM 62.6 °F - 51.8 °F 68% 29.97 in 10.0 mi Calm Calm - N/A   Clear
4:15 AM 62.6 °F - 51.8 °F 68% 29.97 in 10.0 mi Calm Calm - N/A   Clear
4:35 AM 62.6 °F - 51.8 °F 68% 29.97 in 10.0 mi Calm Calm - N/A   Clear
4:55 AM 62.6 °F - 51.8 °F 68% 29.98 in 10.0 mi Calm Calm - N/A   Clear
5:15 AM 60.8 °F - 51.8 °F 72% 29.98 in 10.0 mi Calm Calm - N/A   Clear
5:55 AM 60.8 °F - 51.8 °F 72% 30.00 in 10.0 mi Calm Calm - N/A   Clear
6:15 AM 60.8 °F - 51.8 °F 72% 30.01 in 10.0 mi Calm Calm - N/A   Clear
6:35 AM 64.4 °F - 53.6 °F 68% 30.01 in 10.0 mi Calm Calm - N/A   Clear
6:55 AM 64.4 °F - 53.6 °F 68% 30.01 in 10.0 mi Calm Calm - N/A   Clear
7:15 AM 68.0 °F - 55.4 °F 64% 30.01 in 10.0 mi Calm Calm - N/A   Clear
7:35 AM 69.8 °F - 57.2 °F 64% 30.02 in 10.0 mi Calm Calm - N/A   Clear
7:55 AM 73.4 °F - 59.0 °F 61% 30.02 in 10.0 mi Calm Calm - N/A   Clear
8:15 AM 77.0 °F - 55.4 °F 47% 30.03 in 10.0 mi Calm Calm - N/A   Clear
8:35 AM 80.6 °F 80.5 °F 55.4 °F 42% 30.03 in 10.0 mi Calm Calm - N/A   Clear
8:55 AM 82.4 °F 81.4 °F 53.6 °F 37% 30.03 in 10.0 mi Calm Calm - N/A   Clear
9:15 AM 84.2 °F - 44.6 °F 25% 30.03 in 10.0 mi South 3.5 mph - N/A   Clear
9:35 AM 86.0 °F - 35.6 °F 17% 30.04 in 10.0 mi South 3.5 mph - N/A   Clear
9:55 AM 86.0 °F - 48.2 °F 27% 30.04 in 10.0 mi Calm Calm - N/A   Clear
10:15 AM 87.8 °F - 51.8 °F 29% 30.05 in 10.0 mi Variable 3.5 mph - N/A   Clear
10:35 AM 87.8 °F - 51.8 °F 29% 30.05 in 10.0 mi Variable 3.5 mph - N/A   Clear
10:55 AM 89.6 °F 87.3 °F 53.6 °F 29% 30.05 in 10.0 mi Calm Calm - N/A   Clear
11:15 AM 89.6 °F - 50.0 °F 26% 30.06 in 10.0 mi South 4.6 mph - N/A   Clear
11:35 AM 91.4 °F - 46.4 °F 21% 30.06 in 10.0 mi Variable 4.6 mph - N/A   Clear
11:55 AM 91.4 °F - 44.6 °F 20% 30.06 in 10.0 mi Variable 4.6 mph - N/A   Clear
12:15 PM 91.4 °F - 41.0 °F 17% 30.06 in 10.0 mi WSW 6.9 mph - N/A   Clear
12:35 PM 93.2 °F - 37.4 °F 14% 30.06 in 10.0 mi WSW 9.2 mph - N/A   Clear
12:55 PM 95.0 °F - 35.6 °F 12% 30.06 in 10.0 mi South 4.6 mph - N/A   Clear
1:15 PM 95.0 °F - 35.6 °F 12% 30.06 in 10.0 mi Calm Calm - N/A   Clear
1:55 PM 95.0 °F - 35.6 °F 12% 30.06 in 10.0 mi SW 6.9 mph - N/A   Clear
2:15 PM 95.0 °F - 33.8 °F 12% 30.05 in 10.0 mi Calm Calm 13.8 mph N/A   Clear
2:35 PM 95.0 °F - 33.8 °F 12% 30.06 in 10.0 mi WSW 8.1 mph - N/A   Clear
2:55 PM 96.8 °F - 33.8 °F 11% 30.05 in 10.0 mi WSW 9.2 mph - N/A   Clear
3:15 PM 96.8 °F - 33.8 °F 11% 30.05 in 10.0 mi Variable 6.9 mph - N/A   Clear
3:35 PM 95.0 °F - 33.8 °F 12% 30.04 in 10.0 mi WSW 8.1 mph - N/A   Clear
3:55 PM 95.0 °F - 33.8 °F 12% 30.04 in 10.0 mi SW 4.6 mph - N/A   Clear
4:15 PM 95.0 °F - 33.8 °F 12% 30.04 in 10.0 mi WSW 5.8 mph - N/A   Clear
4:35 PM 95.0 °F - 33.8 °F 12% 30.04 in 10.0 mi WSW 8.1 mph - N/A   Clear
4:55 PM 95.0 °F - 32.0 °F 11% 30.03 in 10.0 mi SSW 4.6 mph - N/A   Clear
5:15 PM 95.0 °F - 32.0 °F 11% 30.03 in 10.0 mi SSW 3.5 mph - N/A   Clear
5:35 PM 93.2 °F - 33.8 °F 12% 30.03 in 10.0 mi WSW 6.9 mph - N/A   Clear
5:55 PM 93.2 °F - 33.8 °F 12% 30.03 in 10.0 mi SW 5.8 mph - N/A   Clear
6:15 PM 93.2 °F - 30.2 °F 11% 30.03 in 10.0 mi SSW 6.9 mph - N/A   Clear
6:35 PM 91.4 °F - 28.4 °F 10% 30.03 in 10.0 mi SW 5.8 mph - N/A   Clear
6:55 PM 91.4 °F - 32.0 °F 12% 30.03 in 10.0 mi SSW 5.8 mph - N/A   Clear
7:15 PM 89.6 °F - 37.4 °F 16% 30.03 in 10.0 mi West 5.8 mph - N/A   Clear
7:35 PM 87.8 °F - 39.2 °F 18% 30.03 in 10.0 mi West 3.5 mph - N/A   Clear
7:55 PM 84.2 °F - 41.0 °F 22% 30.03 in 10.0 mi Variable 4.6 mph - N/A   Clear
8:15 PM 82.4 °F - 42.8 °F 25% 30.04 in 10.0 mi Variable 3.5 mph - N/A   Clear
8:35 PM 80.6 °F - 44.6 °F 28% 30.04 in 10.0 mi Variable 5.8 mph - N/A   Clear
8:55 PM 77.0 °F - 46.4 °F 34% 30.05 in 10.0 mi Calm Calm - N/A   Clear
9:15 PM 73.4 °F - 46.4 °F 38% 30.05 in 10.0 mi Calm Calm - N/A   Clear
9:35 PM 71.6 °F - 46.4 °F 41% 30.05 in 10.0 mi Variable 3.5 mph - N/A   Clear
9:55 PM 71.6 °F - 46.4 °F 41% 30.05 in 10.0 mi Calm Calm - N/A   Clear
10:15 PM 68.0 °F - 46.4 °F 46% 30.06 in 10.0 mi Calm Calm - N/A   Clear
10:35 PM 68.0 °F - 46.4 °F 46% 30.06 in 10.0 mi Calm Calm - N/A   Clear
10:55 PM 66.2 °F - 46.4 °F 49% 30.05 in 10.0 mi Calm Calm - N/A   Clear
11:15 PM 64.4 °F - 46.4 °F 52% 30.05 in 10.0 mi Calm Calm - N/A   Clear
11:35 PM 64.4 °F - 46.4 °F 52% 30.05 in 10.0 mi Calm Calm - N/A   Clear
11:55 PM 62.6 °F - 46.4 °F 55% 30.05 in 10.0 mi Calm Calm - N/A   Clear